Weather in Dargo

Russia / Chechen Republic     42°58′05″N   46°14′32″E
temp.,
°C
wind,
m/s
gust,
m/s
humid.,
%
clouds,
%
prec.,
mm/h
press.,
hPa
HPBL,
m
12 may, wed
wed1200:00+6s118214 0.0 101513
03:00+6s11790 0.0 101512
06:00+8n00750 0.0 101573
09:00+13n31590 0.0 1015642
12:00+16n425910 0.0 1015912
15:00+17n326018 0.0 1015973
18:00+13nne22761 0.0 1015189
21:00+10sse11870 0.0 101512
13 may, thu
thu1300:00+11sse227522 0.0 101417
03:00+11s22601 0.0 101423
06:00+13sse22580 0.0 101430
09:00+20nne22460 0.0 1013503
12:00+23n33454 0.0 1013905
15:00+23n21525 0.1 1013665
18:00+18nnw117812 0.3 101480
21:00+15s2281100 0.3 101514
14 may, fri
fri1400:00+15s227119 0.0 101519
03:00+14sse32595 0.0 101425
06:00+16s325321 0.0 101533
09:00+24nne22370 0.0 1013604
12:00+27nne33350 0.0 10121427
15:00+27n33329 0.0 10111287
18:00+22ssw335982 0.3 101280
21:00+16s446521 1.2 101360
15 may, sat
sat1500:00+16s43560 0.0 101344
03:00+16s43500 0.0 101345
06:00+17s33530 0.0 101341
09:00+24n21370 0.0 1012707
12:00+25n32422 0.0 10131245
15:00+25n32440 0.6 10121348
18:00+21wnw11660 0.2 101226
21:00+17s3269100 0.3 101332
16 may, sun
sun1600:00+17sse326284 0.0 101333
03:00+16s336389 0.0 101235
06:00+17s33645 0.0 101157
09:00+24nne22430 0.0 10091073
12:00+26nne33370 0.0 10071703
15:00+28nne34305 0.0 10051428
18:00+23ssw11540 0.0 100518
21:00+18s43533 0.0 100647